Time,TemperatureF,DewpointF,PressureIn,WindDirection,WindDirectionDegrees,WindSpeedMPH,WindSpeedGustMPH,Humidity,HourlyPrecipIn,Conditions,Clouds,dailyrainin,SoftwareType,DateUTC
2013-02-09 01:02:00,18.0,17.0,-100.00,SE,145,6.0,18.0,94,-99.99,,,-99.99,,2013-02-09 06:02:00,
2013-02-09 01:11:00,18.0,17.0,-100.00,SSE,160,6.0,20.0,94,-99.99,,,-99.99,,2013-02-09 06:11:00,
2013-02-09 01:21:00,18.0,16.0,-100.00,South,170,6.0,16.0,94,-99.99,,,-99.99,,2013-02-09 06:21:00,
2013-02-09 01:32:00,18.0,16.0,-100.00,SSE,155,6.0,15.0,93,-99.99,,,-99.99,,2013-02-09 06:32:00,
2013-02-09 01:42:00,18.0,16.0,-100.00,SSE,155,6.0,18.0,94,-99.99,,,-99.99,,2013-02-09 06:42:00,
2013-02-09 01:52:00,17.0,16.0,-100.00,SSE,150,5.0,24.0,93,-99.99,,,-99.99,,2013-02-09 06:52:00,
2013-02-09 02:01:00,17.0,16.0,-100.00,SSE,160,6.0,17.0,94,-99.99,,,-99.99,,2013-02-09 07:01:00,
2013-02-09 02:11:00,17.0,16.0,-100.00,SSE,150,7.0,18.0,93,-99.99,,,-99.99,,2013-02-09 07:11:00,
2013-02-09 02:22:00,17.0,15.0,-100.00,SSE,160,6.0,21.0,93,-99.99,,,-99.99,,2013-02-09 07:22:00,
2013-02-09 02:32:00,17.0,15.0,-100.00,SSE,160,7.0,23.0,93,-99.99,,,-99.99,,2013-02-09 07:32:00,
2013-02-09 02:42:00,17.0,15.0,-100.00,South,175,5.0,15.0,93,-99.99,,,-99.99,,2013-02-09 07:42:00,
2013-02-09 02:51:00,17.0,15.0,-100.00,SSE,160,7.0,17.0,93,-99.99,,,-99.99,,2013-02-09 07:51:00,
2013-02-09 03:01:00,17.0,15.0,-100.00,SSE,150,5.0,14.0,93,-99.99,,,-99.99,,2013-02-09 08:01:00,
2013-02-09 03:11:00,17.0,15.0,-100.00,SE,130,5.0,14.0,93,-99.99,,,-99.99,,2013-02-09 08:11:00,
2013-02-09 03:32:00,17.0,15.0,-100.00,SE,145,5.0,13.0,93,-99.99,,,-99.99,,2013-02-09 08:32:00,
2013-02-09 04:22:00,17.0,15.0,-100.00,ESE,120,6.0,16.0,93,-99.99,,,-99.99,,2013-02-09 09:22:00,
2013-02-09 04:30:00,17.0,16.0,-100.00,SSE,155,3.0,9.0,93,-99.99,,,-99.99,,2013-02-09 09:30:00,
2013-02-09 04:32:00,17.0,16.0,-100.00,ESE,115,3.0,15.0,93,-99.99,,,-99.99,,2013-02-09 09:32:00,
2013-02-09 04:42:00,17.0,16.0,-100.00,East,85,5.0,15.0,93,-99.99,,,-99.99,,2013-02-09 09:42:00,
2013-02-09 04:52:00,17.0,16.0,-100.00,ESE,115,2.0,8.0,93,-99.99,,,-99.99,,2013-02-09 09:52:00,
2013-02-09 05:01:00,17.0,16.0,-100.00,ESE,115,2.0,8.0,93,-99.99,,,-99.99,,2013-02-09 10:01:00,
2013-02-09 05:11:00,17.0,16.0,-100.00,SSE,155,3.0,9.0,93,-99.99,,,-99.99,,2013-02-09 10:11:00,
2013-02-09 05:21:00,17.0,16.0,-100.00,SSE,155,3.0,9.0,93,-99.99,,,-99.99,,2013-02-09 10:21:00,
2013-02-09 05:42:00,17.0,16.0,-100.00,East,95,3.0,10.0,93,-99.99,,,-99.99,,2013-02-09 10:42:00,
2013-02-09 05:52:00,17.0,16.0,-100.00,SSE,155,6.0,18.0,93,-99.99,,,-99.99,,2013-02-09 10:52:00,
2013-02-09 06:22:00,18.0,16.0,-100.00,East,90,6.0,12.0,93,-99.99,,,-99.99,,2013-02-09 11:22:00,
2013-02-09 08:32:00,20.0,19.0,-100.00,SSE,165,5.0,13.0,94,-99.99,,,-99.99,,2013-02-09 13:32:00,
2013-02-09 09:32:00,21.0,20.0,-100.00,ESE,105,6.0,15.0,94,-99.99,,,-99.99,,2013-02-09 14:32:00,
2013-02-09 09:42:00,21.0,20.0,-100.00,East,95,7.0,20.0,94,-99.99,,,-99.99,,2013-02-09 14:42:00,
2013-02-09 09:52:00,21.0,20.0,-100.00,East,80,5.0,20.0,94,-99.99,,,-99.99,,2013-02-09 14:52:00,
2013-02-09 10:02:00,21.0,20.0,-100.00,ENE,70,3.0,15.0,94,-99.99,,,-99.99,,2013-02-09 15:02:00,
2013-02-09 10:11:00,21.0,20.0,-100.00,East,85,3.0,13.0,94,-99.99,,,-99.99,,2013-02-09 15:11:00,
2013-02-09 10:22:00,21.0,20.0,-100.00,East,80,2.0,12.0,94,-99.99,,,-99.99,,2013-02-09 15:22:00,
2013-02-09 10:30:00,22.0,21.0,-100.00,East,80,5.0,15.0,95,-99.99,,,-99.99,,2013-02-09 15:30:00,
2013-02-09 10:32:00,21.0,20.0,-100.00,East,85,5.0,16.0,95,-99.99,,,-99.99,,2013-02-09 15:32:00,
2013-02-09 10:42:00,21.0,20.0,-100.00,East,95,5.0,14.0,94,-99.99,,,-99.99,,2013-02-09 15:42:00,
2013-02-09 10:51:00,22.0,20.0,-100.00,ESE,105,3.0,20.0,94,-99.99,,,-99.99,,2013-02-09 15:51:00,
2013-02-09 11:01:00,22.0,20.0,-100.00,South,170,2.0,13.0,94,-99.99,,,-99.99,,2013-02-09 16:01:00,
2013-02-09 11:11:00,22.0,21.0,-100.00,East,80,5.0,15.0,95,-99.99,,,-99.99,,2013-02-09 16:11:00,
2013-02-09 11:22:00,22.0,21.0,-100.00,East,80,5.0,15.0,95,-99.99,,,-99.99,,2013-02-09 16:22:00,
2013-02-09 11:42:00,23.0,22.0,-100.00,ENE,70,6.0,21.0,95,-99.99,,,-99.99,,2013-02-09 16:42:00,
2013-02-09 11:52:00,23.0,22.0,-100.00,East,80,8.0,21.0,96,-99.99,,,-99.99,,2013-02-09 16:52:00,
2013-02-09 12:01:00,24.0,23.0,-100.00,ENE,65,7.0,18.0,96,-99.99,,,-99.99,,2013-02-09 17:01:00,
2013-02-09 12:11:00,24.0,23.0,-100.00,ESE,115,6.0,18.0,96,-99.99,,,-99.99,,2013-02-09 17:11:00,
2013-02-09 12:22:00,25.0,24.0,-100.00,East,90,5.0,15.0,96,-99.99,,,-99.99,,2013-02-09 17:22:00,
2013-02-09 12:32:00,26.0,25.0,-100.00,ENE,65,9.0,17.0,96,-99.99,,,-99.99,,2013-02-09 17:32:00,
2013-02-09 12:42:00,26.0,25.0,-100.00,East,85,3.0,16.0,96,-99.99,,,-99.99,,2013-02-09 17:42:00,
2013-02-09 12:52:00,26.0,25.0,-100.00,ENE,70,3.0,27.0,96,-99.99,,,-99.99,,2013-02-09 17:52:00,
2013-02-09 13:02:00,28.0,27.0,-100.00,East,80,7.0,15.0,97,-99.99,,,-99.99,,2013-02-09 18:02:00,
2013-02-09 13:12:00,28.0,27.0,-100.00,East,85,6.0,24.0,97,-99.99,,,-99.99,,2013-02-09 18:12:00,
2013-02-09 13:23:00,28.0,27.0,-100.00,ENE,65,6.0,18.0,97,-99.99,,,-99.99,,2013-02-09 18:23:00,
2013-02-09 13:32:00,28.0,27.0,-100.00,East,85,6.0,18.0,97,-99.99,,,-99.99,,2013-02-09 18:32:00,
2013-02-09 13:42:00,26.0,26.0,-100.00,East,80,9.0,20.0,97,-99.99,,,-99.99,,2013-02-09 18:42:00,
2013-02-09 13:52:00,26.0,25.0,-100.00,ENE,65,6.0,20.0,97,-99.99,,,-99.99,,2013-02-09 18:52:00,
2013-02-09 14:02:00,26.0,25.0,-100.00,East,85,6.0,20.0,97,-99.99,,,-99.99,,2013-02-09 19:02:00,
2013-02-09 14:11:00,26.0,25.0,-100.00,ESE,120,7.0,20.0,97,-99.99,,,-99.99,,2013-02-09 19:11:00,
2013-02-09 14:22:00,25.0,24.0,-100.00,ENE,70,8.0,17.0,96,-99.99,,,-99.99,,2013-02-09 19:22:00,
2013-02-09 14:32:00,25.0,24.0,-100.00,East,85,7.0,18.0,96,-99.99,,,-99.99,,2013-02-09 19:32:00,
2013-02-09 14:42:00,25.0,24.0,-100.00,ESE,105,5.0,17.0,96,-99.99,,,-99.99,,2013-02-09 19:42:00,
2013-02-09 14:52:00,25.0,24.0,-100.00,ESE,105,5.0,17.0,96,-99.99,,,-99.99,,2013-02-09 19:52:00,
2013-02-09 15:32:00,21.0,19.0,-100.00,ESE,110,6.0,14.0,95,-99.99,,,-99.99,,2013-02-09 20:32:00,
2013-02-09 15:42:00,21.0,19.0,-100.00,ESE,110,6.0,14.0,95,-99.99,,,-99.99,,2013-02-09 20:42:00,
2013-02-09 15:52:00,21.0,20.0,-100.00,ESE,105,5.0,13.0,95,-99.99,,,-99.99,,2013-02-09 20:52:00,
2013-02-09 16:02:00,21.0,20.0,-100.00,SE,140,6.0,17.0,95,-99.99,,,-99.99,,2013-02-09 21:02:00,
2013-02-09 16:12:00,21.0,19.0,-100.00,ENE,75,7.0,20.0,95,-99.99,,,-99.99,,2013-02-09 21:12:00,
2013-02-09 16:22:00,20.0,19.0,-100.00,East,95,5.0,23.0,94,-99.99,,,-99.99,,2013-02-09 21:22:00,
2013-02-09 16:30:00,19.0,18.0,-100.00,ENE,70,7.0,16.0,93,-99.99,,,-99.99,,2013-02-09 21:30:00,
2013-02-09 16:32:00,20.0,19.0,-100.00,ENE,65,5.0,14.0,94,-99.99,,,-99.99,,2013-02-09 21:32:00,
2013-02-09 16:42:00,21.0,19.0,-100.00,East,85,3.0,21.0,94,-99.99,,,-99.99,,2013-02-09 21:42:00,
2013-02-09 16:52:00,20.0,19.0,-100.00,ESE,110,6.0,18.0,94,-99.99,,,-99.99,,2013-02-09 21:52:00,
2013-02-09 17:00:00,19.0,17.0,-100.00,ESE,120,3.0,13.0,93,-99.99,,,-99.99,,2013-02-09 22:00:00,
2013-02-09 17:01:00,20.0,19.0,-100.00,ESE,110,6.0,18.0,94,-99.99,,,-99.99,,2013-02-09 22:01:00,
2013-02-09 17:11:00,19.0,18.0,-100.00,ENE,70,7.0,16.0,93,-99.99,,,-99.99,,2013-02-09 22:11:00,
2013-02-09 17:22:00,19.0,18.0,-100.00,ENE,70,7.0,16.0,93,-99.99,,,-99.99,,2013-02-09 22:22:00,
2013-02-09 17:42:00,19.0,17.0,-100.00,ESE,120,3.0,13.0,93,-99.99,,,-99.99,,2013-02-09 22:42:00,
2013-02-09 17:52:00,19.0,17.0,-100.00,ESE,120,3.0,13.0,93,-99.99,,,-99.99,,2013-02-09 22:52:00,
2013-02-09 18:11:00,18.0,16.0,-100.00,East,85,3.0,12.0,93,-99.99,,,-99.99,,2013-02-09 23:11:00,
2013-02-09 18:22:00,18.0,16.0,-100.00,East,95,6.0,14.0,92,-99.99,,,-99.99,,2013-02-09 23:22:00,
2013-02-09 18:52:00,17.0,15.0,-100.00,East,100,3.0,12.0,91,-99.99,,,-99.99,,2013-02-09 23:52:00,
2013-02-09 19:02:00,17.0,14.0,-100.00,East,80,5.0,12.0,90,-99.99,,,-99.99,,2013-02-10 00:02:00,
2013-02-09 20:01:00,16.0,13.0,-100.00,East,95,3.0,13.0,88,-99.99,,,-99.99,,2013-02-10 01:01:00,
2013-02-09 20:12:00,16.0,13.0,-100.00,East,95,2.0,14.0,87,-99.99,,,-99.99,,2013-02-10 01:12:00,
2013-02-09 20:22:00,16.0,13.0,-100.00,ENE,75,5.0,17.0,86,-99.99,,,-99.99,,2013-02-10 01:22:00,
2013-02-09 20:32:00,16.0,13.0,-100.00,ENE,75,5.0,17.0,86,-99.99,,,-99.99,,2013-02-10 01:32:00,
2013-02-09 20:42:00,16.0,12.0,-100.00,East,80,7.0,16.0,86,-99.99,,,-99.99,,2013-02-10 01:42:00,
2013-02-09 20:52:00,15.0,12.0,-100.00,East,95,7.0,15.0,85,-99.99,,,-99.99,,2013-02-10 01:52:00,
2013-02-09 21:01:00,15.0,11.0,-100.00,East,90,2.0,15.0,84,-99.99,,,-99.99,,2013-02-10 02:01:00,
2013-02-09 21:11:00,15.0,11.0,-100.00,ENE,75,6.0,17.0,84,-99.99,,,-99.99,,2013-02-10 02:11:00,
2013-02-09 21:22:00,15.0,11.0,-100.00,ENE,75,5.0,16.0,83,-99.99,,,-99.99,,2013-02-10 02:22:00,
2013-02-09 21:32:00,15.0,10.0,-100.00,SE,135,5.0,13.0,82,-99.99,,,-99.99,,2013-02-10 02:32:00,
2013-02-09 21:42:00,14.0,10.0,-100.00,East,90,6.0,12.0,81,-99.99,,,-99.99,,2013-02-10 02:42:00,
2013-02-09 21:52:00,14.0,10.0,-100.00,East,85,5.0,18.0,82,-99.99,,,-99.99,,2013-02-10 02:52:00,
2013-02-09 22:00:00,13.0,8.0,-100.00,East,90,5.0,15.0,77,-99.99,,,-99.99,,2013-02-10 03:00:00,
2013-02-09 22:02:00,14.0,9.0,-100.00,East,90,5.0,18.0,81,-99.99,,,-99.99,,2013-02-10 03:02:00,
2013-02-09 22:12:00,14.0,9.0,-100.00,ENE,70,6.0,17.0,79,-99.99,,,-99.99,,2013-02-10 03:12:00,
2013-02-09 22:22:00,14.0,8.0,-100.00,East,85,3.0,15.0,78,-99.99,,,-99.99,,2013-02-10 03:22:00,
2013-02-09 22:30:00,13.0,7.0,-100.00,ENE,75,6.0,14.0,75,-99.99,,,-99.99,,2013-02-10 03:30:00,
2013-02-09 22:32:00,14.0,8.0,-100.00,ENE,65,2.0,14.0,78,-99.99,,,-99.99,,2013-02-10 03:32:00,
2013-02-09 22:42:00,13.0,8.0,-100.00,East,90,5.0,15.0,77,-99.99,,,-99.99,,2013-02-10 03:42:00,
2013-02-09 22:52:00,13.0,8.0,-100.00,East,90,5.0,15.0,77,-99.99,,,-99.99,,2013-02-10 03:52:00,
2013-02-09 23:11:00,13.0,7.0,-100.00,ENE,75,6.0,14.0,75,-99.99,,,-99.99,,2013-02-10 04:11:00,
2013-02-09 23:22:00,13.0,7.0,-100.00,ENE,75,6.0,14.0,75,-99.99,,,-99.99,,2013-02-10 04:22:00,